This demonstration page uses our WeatherBlox Daily Observations layout. Learn more.

Left ArrowRight Arrow

44.89941, -97.11507

Hourly Observations for April 24, 2019

Temp ( °F °C ) Dew Point ( °F °C ) Humidity (%) Winds ( mph kmh ) Pressure ( in mb ) Visibility ( mi km ) Precip ( " mm )
12:53 am 00:53 Clear 50 10 37 2.8 61 61 S 14 22 29.87 1011 10 16 0.00 0.00
1:53 am 01:53 Clear 49 9.4 37 2.8 64 64 S 12 19 29.86 1011 10 16 0.00 0.00
2:53 am 02:53 Clear 49 9.4 37 2.8 64 64 S 13 20 29.84 1011 10 16 0.00 0.00
3:53 am 03:53 Cloudy 50 10 37 2.8 61 61 S 13 20 29.83 1010 10 16 0.00 0.00
4:53 am 04:53 Mostly Clear 47 8.3 36 2.2 66 66 S 12 19 29.81 1009 10 16 0.00 0.00
5:53 am 05:53 Cloudy 48 8.9 37 2.8 66 66 S 7 11 29.80 1009 10 16 0.00 0.00
6:53 am 06:53 Cloudy 48 8.9 38 3.3 68 68 SSE 7 11 29.80 1009 10 16 0.00 0.00
7:53 am 07:53 Sunny 50 10 39 3.9 66 66 SSE 10 17 29.81 1009 10 16 0.00 0.00
8:53 am 08:53 Sunny 56 13.3 37 2.8 49 49 SSW 13 20 29.81 1009 10 16 0.00 0.00
9:53 am 09:53 Sunny 58 14.4 39 3.9 50 50 SSW 12 19 29.80 1009 10 16 0.00 0.00
10:53 am 10:53 Sunny 63 17.2 41 5 45 45 undefined N/A 29.79 1009 10 16 0.00 0.00
11:53 am 11:53 Sunny 66 18.9 42 5.6 42 42 SW 10 17 29.78 1008 10 16 0.00 0.00
12:53 pm 12:53 Sunny 71 21.7 44 6.7 38 38 WSW 10 17 29.75 1008 10 16 0.00 0.00
1:53 pm 13:53 Mostly Cloudy 72 22.2 43 6.1 35 35 W 10 17 29.73 1007 10 16 0.00 0.00
2:53 pm 14:53 Sunny 75 23.9 42 5.6 31 31 W 8 13 29.72 1006 10 16 0.00 0.00
3:53 pm 15:53 Mostly Cloudy 74 23.3 41 5 31 31 WNW 8 13 29.71 1006 10 16 0.00 0.00
4:53 pm 16:53 Mostly Cloudy 72 22.2 47 8.3 41 41 NNW 8 13 29.70 1006 10 16 0.00 0.03
5:53 pm 17:53 Mostly Cloudy 68 20 49 9.4 51 51 SSW 10 17 29.71 1006 10 16 0.00 0.00
6:53 pm 18:53 Cloudy 64 17.8 51 10.6 63 63 SSW 13 20 29.72 1006 10 16 0.00 0.00
7:53 pm 19:53 Cloudy 62 16.7 50 10 65 65 SSE 6 9 29.72 1006 10 16 0.00 0.00
8:53 pm 20:53 Clear 57 13.9 51 10.6 81 81 Calm 29.72 1007 10 16 0.00 0.00
9:53 pm 21:53 Partly Cloudy 55 12.8 50 10 83 83 N 5 7 29.75 1007 10 16 0.00 0.00
10:53 pm 22:53 Cloudy 56 13.3 50 10 81 81 N 6 9 29.76 1008 10 16 0.00 0.00
11:53 pm 23:53 Cloudy 56 13.3 47 8.3 72 72 WNW 5 7 29.78 1009 10 16 0.00 0.03

Powered by AerisWeather